Domov               UVHVVR             MKGP            O straneh              
ZDRAVSTVENO VARSTVO RASTLIN
  MREŽA AGROMET. POSTAJ
 ► PROGNOSTIČNA OBVESTILA
AGROMETEOROLOŠKI PODATKI -
ARSO
OBVLADOVANJE TVEGANJ ZARADI
NEUGODNIH VREMENSKIH RAZMER
  ► NARAVNE NESREČE
  ► SUŠA/MOČA
  ► NAMAKANJE
  ► ŽLED (gozdarstvo)
KARTOGRAFSKI PRIKAZI
SPLETNE POVEZAVE
PROJEKTI IN PUBLIKACIJE

AGROMETEOROLOŠKA MREŽA: VREMENSKE POSTAJE IN FENOLOŠKA OPAZOVANJA

Pregled podatkov za lokacijo Pradisiol, meteorološka postaja 861649

Pregled senzorjev na lokaciji

ID Ime Zadnja
vrednost
Datum
zadnje
spremembe
Tip
senzorja
4074 Temperatura 2 m ( °C) 16,34 °C 18.10.2017 18:00 50YA
4075 Relativna vlaga 2 m (% RH) 85,72 % RH 18.10.2017 18:00 50YA
4076 Omočenost lista (U) 1 U 18.10.2017 18:00 A730WET
4077 Padavine 0.2 mm (mm) 0 mm 18.10.2017 18:00 Rain-O-Matic

Pregled podatkov zadnjih 24 ur

Zap.
št.
Datum in čas Pradisiol
Omočenost
lista
Padavine
0.2
mm
Relativna
vlaga
2
m
Temperatura
2
m
0 18.10.2017 17:00 1 0 85,72 16,34
1 18.10.2017 16:30 0 0 82,59 17,21
2 18.10.2017 16:00 0 0 80,16 17,63
3 18.10.2017 15:30 0 0 79,6 17,89
4 18.10.2017 15:00 0 0 78,18 18,26
5 18.10.2017 14:30 0 0 77,82 18,32
6 18.10.2017 14:00 0 0 77,04 18,51
7 18.10.2017 13:30 0 0 76,4 18,57
8 18.10.2017 13:00 0 0 75,88 18,53
9 18.10.2017 12:30 0 0 76,61 18,49
10 18.10.2017 12:00 0 0 78,78 17,97
11 18.10.2017 11:30 0 0 79,67 17,8
12 18.10.2017 11:00 0 0 81,48 17,42
13 18.10.2017 10:30 0 0 83,03 17,3
14 18.10.2017 10:00 0 0 87 16,84
15 18.10.2017 09:30 0 0 97,1 15,2
16 18.10.2017 09:00 0 0 99,97 13,9
17 18.10.2017 08:30 0 0 100 11,7
18 18.10.2017 08:00 3 0 100 8,85
19 18.10.2017 07:30 10 0 100 6,51
20 18.10.2017 07:00 10 0 100 5,36
21 18.10.2017 06:30 9 0 100 5,09
22 18.10.2017 06:00 10 0 100 5,24
23 18.10.2017 05:30 10 0 99,98 5,5
24 18.10.2017 05:00 10 0 99,97 5,9
25 18.10.2017 04:30 10 0 99,97 6,57
26 18.10.2017 04:00 10 0 99,89 6,84
27 18.10.2017 03:30 10 0 99,72 7,52
28 18.10.2017 03:00 10 0 99,86 8,47
29 18.10.2017 02:30 10 0 99,77 9,08
30 18.10.2017 02:00 10 0 99,84 9,88
31 18.10.2017 01:30 10 0 99,89 10,39
32 18.10.2017 01:00 10 0 99,8 10,49
33 18.10.2017 00:30 10 0 99,76 10,31
34 18.10.2017 00:00 10 0 99,67 9,8
35 17.10.2017 23:30 10 0 99,62 9,72
36 17.10.2017 23:00 10 0 99,28 9,08
37 17.10.2017 22:30 10 0 99,05 9,32
38 17.10.2017 22:00 10 0 98,82 9,66
39 17.10.2017 21:30 10 0 98,73 10,18
40 17.10.2017 21:00 10 0 98,61 10,49
41 17.10.2017 20:30 10 0 98,32 10,66
42 17.10.2017 20:00 10 0 97,84 10,95
43 17.10.2017 19:30 10 0 97,19 11,31
44 17.10.2017 19:00 10 0 96,36 11,67
45 17.10.2017 18:30 10 0 95,26 12,4
© 2011 Ministrstvo za kmetijstvo, gozdarstvo in prehrano. Vse pravice pridržane.